Location: Ferris
(32.5340°N, 96.6656°W)
Time: 23:05:04
(UTC+00:00)

Cosmos 1354 Rocket - Pass Details

Date: 19 May 2026
Orbit: 761 x 778 km, 74.0° (Epoch: 7 June)

Event Time Altitude Azimuth Distance (km) Brightness Sun altitude
Rises 02:54:26 0° 6° (N) 3,231 7.7 -17.7°
Reaches altitude 10° 02:58:21 10° 36° (NE) 2,298 6.5 -18.4°
Maximum altitude 03:00:31 12° 61° (ENE) 2,123 6.1 -18.7°
Enters shadow 03:01:16 12° 70° (ENE) 2,143 6.0 -18.9°
